When you browse on this site, cookies collect data to enhance your experience and personalize the content and advertising you see.
Visit our Privacy Policy to learn more. By continuing to use the site, you agree to this use of cookies and data.
  • In Latvia
  • List of Countries
  • For 7 days
  • Water Temperature
  • Satellite Maps
  • Weather Map
  • Weather Widgets
  • user-avatar
    Login

    Hourly Weather Salta

    Today, 12 December, Wednesday

    Time Temperature Precipitation Wind Pressure Humidity
    00:00 +25°C° 0 mm 1 mps 650 mmHg 70%
    01:00 +25°C° 0 mm 1 mps 649 mmHg 70%
    02:00 +24°C° 0 mm 1 mps 649 mmHg 72%
    03:00 +24°C° 0 mm 1 mps 649 mmHg 73%
    04:00 +24°C° 0 mm 1 mps 650 mmHg 73%
    05:00 +23°C° 0 mm 1 mps 650 mmHg 74%
    06:00 +25°C° 0.1 mm 1 mps 651 mmHg 67%
    07:00 +27°C° 0.1 mm 1 mps 652 mmHg 60%
    08:00 +29°C° 0.1 mm 1 mps 653 mmHg 53%
    09:00 +31°C° 0.5 mm 2 mps 653 mmHg 48%
    10:00 +32°C° 0.5 mm 2 mps 654 mmHg 44%
    11:00 +35°C° 0.5 mm 3 mps 654 mmHg 40%
    12:00 +35°C° 1.1 mm 3 mps 653 mmHg 41%
    13:00 +35°C° 1.1 mm 4 mps 653 mmHg 42%
    14:00 +35°C° 1.1 mm 4 mps 652 mmHg 43%
    15:00 +33°C° 2.5 mm 4 mps 651 mmHg 48%
    16:00 +31°C° 2.5 mm 3 mps 650 mmHg 54%
    17:00 +29°C° 2.5 mm 3 mps 649 mmHg 60%
    18:00 +28°C° 1.5 mm 2 mps 650 mmHg 66%
    19:00 +27°C° 1.5 mm 2 mps 650 mmHg 73%
    20:00 +25°C° 1.5 mm 1 mps 650 mmHg 79%
    21:00 +25°C° 0.6 mm 1 mps 650 mmHg 79%
    22:00 +25°C° 0.6 mm 1 mps 651 mmHg 80%
    23:00 +24°C° 0.6 mm 1 mps 651 mmHg 80%

    Tomorrow, 13 December, Thursday

    Time Temperature Precipitation Wind Pressure Humidity
    00:00 +24°C° 0.7 mm 1 mps 650 mmHg 79%
    01:00 +24°C° 0.7 mm 1 mps 650 mmHg 77%
    02:00 +24°C° 0.7 mm 1 mps 650 mmHg 76%
    03:00 +24°C° 0 mm 1 mps 649 mmHg 73%
    04:00 +23°C° 0 mm 2 mps 649 mmHg 70%
    05:00 +23°C° 0 mm 2 mps 649 mmHg 67%
    06:00 +25°C° 0 mm 2 mps 650 mmHg 61%
    07:00 +27°C° 0 mm 2 mps 650 mmHg 55%
    08:00 +29°C° 0 mm 2 mps 651 mmHg 50%
    09:00 +31°C° 0 mm 2 mps 651 mmHg 45%
    10:00 +33°C° 0 mm 3 mps 651 mmHg 40%
    11:00 +35°C° 0 mm 3 mps 651 mmHg 34%
    12:00 +36°C° 0 mm 3 mps 650 mmHg 34%
    13:00 +36°C° 0 mm 4 mps 649 mmHg 33%
    14:00 +37°C° 0 mm 4 mps 649 mmHg 32%
    15:00 +36°C° 0.8 mm 4 mps 648 mmHg 34%
    16:00 +36°C° 0.8 mm 4 mps 647 mmHg 37%
    17:00 +35°C° 0.8 mm 3 mps 646 mmHg 40%
    18:00 +33°C° 1 mm 3 mps 646 mmHg 47%
    19:00 +30°C° 1 mm 2 mps 646 mmHg 55%
    20:00 +28°C° 1 mm 1 mps 646 mmHg 62%
    21:00 +28°C° 0.4 mm 1 mps 647 mmHg 63%
    22:00 +27°C° 0.4 mm 1 mps 647 mmHg 64%
    23:00 +27°C° 0.4 mm 1 mps 648 mmHg 65%

    Day after tomorrow, 14 December, Friday

    Time Temperature Precipitation Wind Pressure Humidity
    00:00 +27°C° 0.1 mm 1 mps 647 mmHg 64%
    01:00 +26°C° 0.1 mm 1 mps 647 mmHg 63%
    02:00 +26°C° 0.1 mm 1 mps 646 mmHg 63%
    03:00 +25°C° 0 mm 1 mps 646 mmHg 60%
    04:00 +25°C° 0 mm 1 mps 647 mmHg 57%
    05:00 +25°C° 0 mm 1 mps 647 mmHg 55%
    06:00 +27°C° 0 mm 1 mps 648 mmHg 48%
    07:00 +29°C° 0 mm 1 mps 649 mmHg 42%
    08:00 +31°C° 0 mm 1 mps 650 mmHg 35%
    09:00 +34°C° 0 mm 2 mps 650 mmHg 31%
    10:00 +36°C° 0 mm 2 mps 651 mmHg 28%
    11:00 +37°C° 0 mm 3 mps 651 mmHg 24%
    12:00 +38°C° 0 mm 3 mps 651 mmHg 25%
    13:00 +38°C° 0 mm 4 mps 650 mmHg 27%
    14:00 +39°C° 0 mm 5 mps 650 mmHg 28%
    15:00 +36°C° 2.4 mm 4 mps 649 mmHg 38%
    16:00 +33°C° 2.4 mm 3 mps 648 mmHg 47%
    17:00 +30°C° 2.4 mm 2 mps 648 mmHg 56%
    18:00 +28°C° 9.4 mm 2 mps 648 mmHg 65%
    19:00 +27°C° 9.4 mm 3 mps 648 mmHg 74%
    20:00 +25°C° 9.4 mm 3 mps 649 mmHg 83%
    21:00 +25°C° 2.1 mm 2 mps 649 mmHg 81%
    22:00 +24°C° 2.1 mm 2 mps 650 mmHg 80%
    23:00 +24°C° 2.1 mm 1 mps 651 mmHg 79%

    15 December, Saturday

    Time Temperature Precipitation Wind Pressure Humidity
    00:00 +24°C° 0.6 mm 1 mps 651 mmHg 79%
    01:00 +23°C° 0.6 mm 2 mps 651 mmHg 79%
    02:00 +23°C° 0.6 mm 2 mps 650 mmHg 80%
    03:00 +23°C° 0.6 mm 2 mps 651 mmHg 81%
    04:00 +22°C° 0.6 mm 1 mps 651 mmHg 83%
    05:00 +22°C° 0.6 mm 1 mps 651 mmHg 84%
    06:00 +22°C° 1.2 mm 1 mps 652 mmHg 84%
    07:00 +23°C° 1.2 mm 2 mps 653 mmHg 83%
    08:00 +23°C° 1.2 mm 2 mps 653 mmHg 82%
    09:00 +24°C° 0.7 mm 2 mps 653 mmHg 78%
    10:00 +25°C° 0.7 mm 2 mps 653 mmHg 73%
    11:00 +26°C° 0.7 mm 2 mps 653 mmHg 69%
    12:00 +26°C° 0.5 mm 3 mps 653 mmHg 69%
    13:00 +26°C° 0.5 mm 3 mps 652 mmHg 68%
    14:00 +26°C° 0.5 mm 3 mps 651 mmHg 68%
    15:00 +25°C° 1.1 mm 3 mps 651 mmHg 72%
    16:00 +25°C° 1.1 mm 2 mps 650 mmHg 75%
    17:00 +24°C° 1.1 mm 2 mps 650 mmHg 79%
    18:00 +23°C° 0.5 mm 2 mps 650 mmHg 82%
    19:00 +23°C° 0.5 mm 1 mps 651 mmHg 85%
    20:00 +22°C° 0.5 mm 1 mps 651 mmHg 88%
    21:00 +22°C° 0.2 mm 1 mps 651 mmHg 87%
    22:00 +22°C° 0.2 mm 1 mps 652 mmHg 86%
    23:00 +22°C° 0.2 mm 1 mps 652 mmHg 85%

    16 December, Sunday

    Time Temperature Precipitation Wind Pressure Humidity
    00:00 +22°C° 0 mm 1 mps 651 mmHg 84%
    01:00 +22°C° 0 mm 1 mps 651 mmHg 84%
    02:00 +21°C° 0 mm 1 mps 650 mmHg 84%
    03:00 +21°C° 0 mm 1 mps 650 mmHg 85%
    04:00 +21°C° 0 mm 1 mps 650 mmHg 86%
    05:00 +21°C° 0 mm 1 mps 650 mmHg 88%
    06:00 +22°C° 0 mm 1 mps 651 mmHg 84%
    07:00 +23°C° 0 mm 1 mps 652 mmHg 80%
    08:00 +24°C° 0 mm 1 mps 652 mmHg 76%
    09:00 +25°C° 0.1 mm 1 mps 652 mmHg 69%
    10:00 +27°C° 0.1 mm 2 mps 652 mmHg 62%
    11:00 +29°C° 0.1 mm 3 mps 652 mmHg 55%
    12:00 +29°C° 0.1 mm 3 mps 652 mmHg 54%
    13:00 +29°C° 0.1 mm 3 mps 651 mmHg 54%
    14:00 +29°C° 0.1 mm 3 mps 650 mmHg 54%
    15:00 +29°C° 0.1 mm 3 mps 650 mmHg 56%
    16:00 +29°C° 0.1 mm 3 mps 649 mmHg 58%
    17:00 +28°C° 0.1 mm 3 mps 649 mmHg 60%
    18:00 +27°C° 0.1 mm 2 mps 649 mmHg 67%
    19:00 +25°C° 0.1 mm 2 mps 649 mmHg 74%
    20:00 +24°C° 0.1 mm 1 mps 650 mmHg 81%
    21:00 +24°C° 0.1 mm 1 mps 650 mmHg 82%
    22:00 +23°C° 0.1 mm 1 mps 650 mmHg 83%
    23:00 +23°C° 0.1 mm 1 mps 651 mmHg 85%

    17 December, Monday

    Time Temperature Precipitation Wind Pressure Humidity
    00:00 +23°C° 0.1 mm 1 mps 650 mmHg 84%
    01:00 +22°C° 0.1 mm 1 mps 650 mmHg 83%
    02:00 +22°C° 0.1 mm 1 mps 650 mmHg 82%
    03:00 +22°C° 0.1 mm 1 mps 650 mmHg 81%
    04:00 +22°C° 0.1 mm 1 mps 650 mmHg 81%
    05:00 +22°C° 0.1 mm 1 mps 650 mmHg 80%
    06:00 +23°C° 0.1 mm 1 mps 651 mmHg 74%
    07:00 +25°C° 0.1 mm 1 mps 652 mmHg 68%
    08:00 +26°C° 0.1 mm 1 mps 652 mmHg 61%
    09:00 +27°C° 0.5 mm 2 mps 653 mmHg 58%
    10:00 +28°C° 0.5 mm 2 mps 653 mmHg 54%
    11:00 +30°C° 0.5 mm 3 mps 653 mmHg 50%
    12:00 +30°C° 0.7 mm 3 mps 652 mmHg 50%
    13:00 +30°C° 0.7 mm 3 mps 652 mmHg 50%
    14:00 +30°C° 0.7 mm 3 mps 651 mmHg 50%
    15:00 +29°C° 0.9 mm 3 mps 651 mmHg 55%
    16:00 +28°C° 0.9 mm 3 mps 651 mmHg 60%
    17:00 +27°C° 0.9 mm 3 mps 650 mmHg 65%
    18:00 +26°C° 1.4 mm 2 mps 651 mmHg 70%
    19:00 +25°C° 1.4 mm 2 mps 651 mmHg 76%
    20:00 +23°C° 1.4 mm 1 mps 651 mmHg 81%
    21:00 +23°C° 0.4 mm 1 mps 652 mmHg 81%
    22:00 +23°C° 0.4 mm 1 mps 652 mmHg 81%
    23:00 +21°C° 0.4 mm 2 mps 652 mmHg 81%
    Show more